Per Uur in Bolshoe Barovo

Vandaag, 10 Mei, Maandag

Tijd Temperatuur Common.rainfall Wind versnelling Luchtdruk Luchtvochtigheid
00:00 +9°C° 0 mm 3 m/s 753 mmHg 65%
01:00 +8°C° 0 mm 4 m/s 753 mmHg 65%
02:00 +8°C° 0 mm 4 m/s 753 mmHg 64%
03:00 +7°C° 0 mm 4 m/s 753 mmHg 66%
04:00 +7°C° 0 mm 4 m/s 754 mmHg 68%
05:00 +7°C° 0 mm 4 m/s 754 mmHg 70%
06:00 +8°C° 0 mm 4 m/s 754 mmHg 68%
07:00 +9°C° 0 mm 5 m/s 754 mmHg 66%
08:00 +10°C° 0 mm 5 m/s 754 mmHg 64%
09:00 +13°C° 0 mm 5 m/s 754 mmHg 61%
10:00 +15°C° 0 mm 5 m/s 754 mmHg 58%
11:00 +16°C° 0 mm 6 m/s 754 mmHg 55%
12:00 +17°C° 0 mm 6 m/s 754 mmHg 54%
13:00 +19°C° 0 mm 6 m/s 754 mmHg 52%
14:00 +19°C° 0 mm 6 m/s 754 mmHg 51%
15:00 +19°C° 0 mm 5 m/s 754 mmHg 54%
16:00 +19°C° 0 mm 5 m/s 754 mmHg 57%
17:00 +19°C° 0 mm 5 m/s 753 mmHg 59%
18:00 +17°C° 0 mm 4 m/s 754 mmHg 66%
19:00 +14°C° 0 mm 4 m/s 754 mmHg 72%
20:00 +12°C° 0 mm 3 m/s 754 mmHg 78%
21:00 +12°C° 0 mm 3 m/s 754 mmHg 78%
22:00 +11°C° 0 mm 4 m/s 754 mmHg 78%
23:00 +10°C° 0 mm 4 m/s 754 mmHg 78%

Morgen, 11 Mei, Dinsdag

Tijd Temperatuur Common.rainfall Wind versnelling Luchtdruk Luchtvochtigheid
00:00 +10°C° 0 mm 4 m/s 754 mmHg 79%
01:00 +8°C° 0 mm 4 m/s 755 mmHg 79%
02:00 +7°C° 0 mm 4 m/s 755 mmHg 80%
03:00 +7°C° 0 mm 4 m/s 755 mmHg 80%
04:00 +7°C° 0 mm 4 m/s 755 mmHg 80%
05:00 +6°C° 0 mm 4 m/s 755 mmHg 80%
06:00 +8°C° 0 mm 4 m/s 755 mmHg 74%
07:00 +10°C° 0 mm 5 m/s 755 mmHg 68%
08:00 +12°C° 0 mm 5 m/s 755 mmHg 62%
09:00 +14°C° 0 mm 5 m/s 755 mmHg 57%
10:00 +15°C° 0 mm 5 m/s 754 mmHg 51%
11:00 +16°C° 0 mm 6 m/s 754 mmHg 46%
12:00 +17°C° 0 mm 5 m/s 754 mmHg 45%
13:00 +19°C° 0 mm 5 m/s 754 mmHg 43%
14:00 +19°C° 0 mm 5 m/s 753 mmHg 42%
15:00 +19°C° 0 mm 5 m/s 753 mmHg 45%
16:00 +19°C° 0 mm 5 m/s 753 mmHg 48%
17:00 +19°C° 0 mm 4 m/s 753 mmHg 52%
18:00 +17°C° 0 mm 4 m/s 752 mmHg 59%
19:00 +14°C° 0 mm 3 m/s 752 mmHg 66%
20:00 +12°C° 0 mm 3 m/s 752 mmHg 73%
21:00 +11°C° 0 mm 3 m/s 752 mmHg 76%
22:00 +11°C° 0 mm 3 m/s 752 mmHg 79%
23:00 +10°C° 0 mm 3 m/s 752 mmHg 82%

Overmorgen, 12 Mei, Woensdag

Tijd Temperatuur Common.rainfall Wind versnelling Luchtdruk Luchtvochtigheid
00:00 +10°C° 0 mm 3 m/s 752 mmHg 85%
01:00 +10°C° 0 mm 3 m/s 752 mmHg 88%
02:00 +9°C° 0 mm 3 m/s 751 mmHg 90%
03:00 +9°C° 0 mm 3 m/s 751 mmHg 92%
04:00 +10°C° 0 mm 3 m/s 751 mmHg 94%
05:00 +10°C° 0 mm 3 m/s 751 mmHg 95%
06:00 +11°C° 0 mm 4 m/s 751 mmHg 89%
07:00 +12°C° 0 mm 5 m/s 752 mmHg 82%
08:00 +13°C° 0 mm 6 m/s 752 mmHg 76%
09:00 +14°C° 0 mm 6 m/s 752 mmHg 68%
10:00 +15°C° 0 mm 6 m/s 751 mmHg 60%
11:00 +16°C° 0 mm 6 m/s 751 mmHg 52%
12:00 +16°C° 0 mm 6 m/s 751 mmHg 51%
13:00 +17°C° 0 mm 6 m/s 751 mmHg 49%
14:00 +17°C° 0 mm 5 m/s 750 mmHg 48%
15:00 +17°C° 0 mm 5 m/s 750 mmHg 50%
16:00 +18°C° 0 mm 4 m/s 750 mmHg 52%
17:00 +18°C° 0 mm 4 m/s 749 mmHg 55%
18:00 +16°C° 0 mm 3 m/s 749 mmHg 60%
19:00 +15°C° 0 mm 2 m/s 748 mmHg 66%
20:00 +13°C° 0 mm 2 m/s 748 mmHg 71%
21:00 +13°C° 0 mm 1 m/s 747 mmHg 70%
22:00 +13°C° 0 mm 1 m/s 746 mmHg 70%
23:00 +13°C° 0 mm 1 m/s 745 mmHg 69%

13 Mei, Donderdag

Tijd Temperatuur Common.rainfall Wind versnelling Luchtdruk Luchtvochtigheid
00:00 +12°C° 1.8 mm 2 m/s 744 mmHg 78%
01:00 +12°C° 1.8 mm 2 m/s 743 mmHg 86%
02:00 +10°C° 1.8 mm 3 m/s 742 mmHg 95%
03:00 +10°C° 2.4 mm 4 m/s 742 mmHg 95%
04:00 +8°C° 2.4 mm 4 m/s 741 mmHg 96%
05:00 +8°C° 2.4 mm 4 m/s 740 mmHg 96%
06:00 +8°C° 2 mm 5 m/s 741 mmHg 95%
07:00 +8°C° 2 mm 6 m/s 741 mmHg 95%
08:00 +6°C° 2 mm 7 m/s 742 mmHg 94%
09:00 +6°C° 2.1 mm 7 m/s 742 mmHg 93%
10:00 +8°C° 2.1 mm 6 m/s 742 mmHg 91%
11:00 +8°C° 2.1 mm 6 m/s 743 mmHg 90%
12:00 +9°C° 0.6 mm 6 m/s 743 mmHg 88%
13:00 +10°C° 0.6 mm 6 m/s 743 mmHg 85%
14:00 +11°C° 0.6 mm 7 m/s 742 mmHg 82%
15:00 +10°C° 0.7 mm 6 m/s 742 mmHg 85%
16:00 +9°C° 0.7 mm 6 m/s 742 mmHg 88%
17:00 +9°C° 0.7 mm 6 m/s 742 mmHg 91%
18:00 +9°C° 0.4 mm 6 m/s 742 mmHg 92%
19:00 +9°C° 0.4 mm 6 m/s 742 mmHg 93%
20:00 +9°C° 0.4 mm 6 m/s 742 mmHg 93%
21:00 +9°C° 0.5 mm 6 m/s 742 mmHg 93%
22:00 +10°C° 0.5 mm 6 m/s 742 mmHg 92%
23:00 +10°C° 0.5 mm 6 m/s 742 mmHg 91%

14 Mei, Vrijdag

Tijd Temperatuur Common.rainfall Wind versnelling Luchtdruk Luchtvochtigheid
00:00 +9°C° 0 mm 6 m/s 742 mmHg 92%
01:00 +9°C° 0 mm 5 m/s 742 mmHg 93%
02:00 +9°C° 0 mm 5 m/s 742 mmHg 94%
03:00 +9°C° 0.1 mm 5 m/s 742 mmHg 95%
04:00 +10°C° 0.1 mm 4 m/s 742 mmHg 95%
05:00 +11°C° 0.1 mm 4 m/s 742 mmHg 96%
06:00 +11°C° 0.2 mm 4 m/s 742 mmHg 96%
07:00 +11°C° 0.2 mm 4 m/s 741 mmHg 95%
08:00 +12°C° 0.2 mm 3 m/s 741 mmHg 94%
09:00 +12°C° 0 mm 3 m/s 741 mmHg 91%
10:00 +13°C° 0 mm 3 m/s 741 mmHg 87%
11:00 +14°C° 0 mm 3 m/s 742 mmHg 84%
12:00 +14°C° 0 mm 3 m/s 742 mmHg 83%
13:00 +14°C° 0 mm 3 m/s 742 mmHg 82%
14:00 +16°C° 0 mm 3 m/s 742 mmHg 81%
15:00 +16°C° 0 mm 2 m/s 742 mmHg 79%
16:00 +17°C° 0 mm 2 m/s 742 mmHg 76%
17:00 +17°C° 0 mm 2 m/s 742 mmHg 74%
18:00 +16°C° 0.1 mm 2 m/s 742 mmHg 78%
19:00 +15°C° 0.1 mm 2 m/s 742 mmHg 83%
20:00 +14°C° 0.1 mm 1 m/s 742 mmHg 88%
21:00 +13°C° 0 mm 2 m/s 742 mmHg 89%
22:00 +12°C° 0 mm 2 m/s 742 mmHg 91%
23:00 +12°C° 0 mm 2 m/s 743 mmHg 93%

15 Mei, Zaterdag

Tijd Temperatuur Common.rainfall Wind versnelling Luchtdruk Luchtvochtigheid
00:00 +10°C° 0 mm 2 m/s 743 mmHg 93%
01:00 +10°C° 0 mm 2 m/s 743 mmHg 94%
02:00 +9°C° 0 mm 2 m/s 743 mmHg 95%
03:00 +9°C° 0 mm 2 m/s 743 mmHg 96%
04:00 +9°C° 0 mm 2 m/s 744 mmHg 96%
05:00 +9°C° 0 mm 2 m/s 744 mmHg 97%
06:00 +10°C° 0 mm 2 m/s 744 mmHg 94%
07:00 +13°C° 0 mm 2 m/s 745 mmHg 91%
08:00 +14°C° 0 mm 2 m/s 745 mmHg 88%
09:00 +15°C° 0 mm 2 m/s 745 mmHg 83%
10:00 +16°C° 0 mm 1 m/s 745 mmHg 78%
11:00 +18°C° 0 mm 1 m/s 746 mmHg 73%
12:00 +18°C° 0.3 mm 1 m/s 746 mmHg 71%
13:00 +19°C° 0.3 mm 1 m/s 746 mmHg 70%
14:00 +19°C° 0.3 mm 1 m/s 746 mmHg 69%
15:00 +19°C° 0.4 mm 1 m/s 746 mmHg 69%
16:00 +19°C° 0.4 mm 1 m/s 746 mmHg 70%
17:00 +19°C° 0.4 mm 1 m/s 746 mmHg 70%
18:00 +18°C° 0.2 mm 1 m/s 746 mmHg 76%
19:00 +15°C° 0.2 mm 1 m/s 746 mmHg 81%
20:00 +14°C° 0.2 mm 1 m/s 746 mmHg 86%
21:00 +13°C° 0 mm 1 m/s 746 mmHg 87%
22:00 +13°C° 0 mm 1 m/s 746 mmHg 88%
23:00 +12°C° 0 mm 1 m/s 746 mmHg 89%
Meer weergeven

We hebben uw toest

Meteoprog en derde partijen maken gebruik van cookies, apparaat-ID's en andere vergelijkbare technieken. Zo kunnen we het gebruik van onze site analyseren om deze te verbeteren, sociale media integreren en gepersonaliseerde advertenties en content aanbieden.

  • Opslag van en toegang tot informatie over jouw toestel

    Cookies, apparaat-ID's en andere informatie over uw toestel kan worden opgeslagen of geopend voor de hierboven genoemde doeleinden.

  • Gepersonaliseerde advertenties en inhoud, advertentie- en contentmeting, publieksinzichten en productontwikkeling

    Advertenties en website-inhoud kan worden gepersonaliseerd op basis van een profiel. Meer gegevens worden toegevoegd om zo advertenties en inhoud te kunnen personaliseren. Advertentie en inhoud prestaties kunnen worden gemeten. Inzichten, over het publiek dat de advertenties en inhoud heeft gezien, kunnen worden bekeken. Dit soort informatie kan worden gebruikt om systemen, software en de gebruikservaring te formeren en/of te verbeteren.

Door op "Akkoord" te drukken, staat u het gebruik van de aangegeven cookies, apparaat-ID's, webbakens en vergelijkbare technologieën toe. Uw instellingen kunnen worden gewijzigd in de browser op uw toestel.

Voor bepaalde doeleinden kan op legitieme belangen worden vertrouwd in plaats van op toestemming. Wil je meer informatie en/of wil je niet alle soorten cookies toestaan, bekijk dan ons Privacy- en cookiebeleid.